Year,Month,Day,Hour,Minute,Value (Times are PST for temperature in C)
2019,05,26,00,00,8.80
2019,05,26,00,01,8.80
2019,05,26,00,02,8.80
2019,05,26,00,03,8.80
2019,05,26,00,04,8.80
2019,05,26,00,05,8.80
2019,05,26,00,06,8.80
2019,05,26,00,07,8.80
2019,05,26,00,08,8.80
2019,05,26,00,09,8.80
2019,05,26,00,10,8.80
2019,05,26,00,11,8.80
2019,05,26,00,12,8.80
2019,05,26,00,13,8.80
2019,05,26,00,14,8.80
2019,05,26,00,15,8.80
2019,05,26,00,16,8.80
2019,05,26,00,17,8.80
2019,05,26,00,18,8.80
2019,05,26,00,19,8.90
2019,05,26,00,20,8.90
2019,05,26,00,21,8.90
2019,05,26,00,22,8.90
2019,05,26,00,23,8.80
2019,05,26,00,24,8.80
2019,05,26,00,25,8.80
2019,05,26,00,26,8.80
2019,05,26,00,27,8.80
2019,05,26,00,28,8.80
2019,05,26,00,29,8.80
2019,05,26,00,30,8.80
2019,05,26,00,31,8.80
2019,05,26,00,32,8.80
2019,05,26,00,33,8.80
2019,05,26,00,34,8.80
2019,05,26,00,35,8.80
2019,05,26,00,36,8.80
2019,05,26,00,37,8.80
2019,05,26,00,38,8.80
2019,05,26,00,39,8.80
2019,05,26,00,40,8.80
2019,05,26,00,41,8.80
2019,05,26,00,42,8.80
2019,05,26,00,43,8.80
2019,05,26,00,44,8.80
2019,05,26,00,45,8.80
2019,05,26,00,46,8.80
2019,05,26,00,47,8.80
2019,05,26,00,48,8.80
2019,05,26,00,49,8.80
2019,05,26,00,50,8.70
2019,05,26,00,51,8.70
2019,05,26,00,52,8.70
2019,05,26,00,53,8.70
2019,05,26,00,54,8.70
2019,05,26,00,55,8.70
2019,05,26,00,56,8.70
2019,05,26,00,57,8.70
2019,05,26,00,58,8.70
2019,05,26,00,59,8.70
2019,05,26,01,00,8.70
2019,05,26,01,01,8.70
2019,05,26,01,02,8.70
2019,05,26,01,03,8.70
2019,05,26,01,04,8.70
2019,05,26,01,05,8.60
2019,05,26,01,06,8.60
2019,05,26,01,07,8.60
2019,05,26,01,08,8.60
2019,05,26,01,09,8.60
2019,05,26,01,10,8.60
2019,05,26,01,11,8.60
2019,05,26,01,12,8.60
2019,05,26,01,13,8.60
2019,05,26,01,14,8.60
2019,05,26,01,15,8.60
2019,05,26,01,16,8.60
2019,05,26,01,17,8.60
2019,05,26,01,18,8.60
2019,05,26,01,19,8.60
2019,05,26,01,20,8.60
2019,05,26,01,21,8.60
2019,05,26,01,22,8.60
2019,05,26,01,23,8.60
2019,05,26,01,24,8.60
2019,05,26,01,25,8.60
2019,05,26,01,26,8.60
2019,05,26,01,27,8.60
2019,05,26,01,28,8.50
2019,05,26,01,29,8.50
2019,05,26,01,30,8.50
2019,05,26,01,31,8.50
2019,05,26,01,32,8.50
2019,05,26,01,33,8.50
2019,05,26,01,34,8.50
2019,05,26,01,35,8.50
2019,05,26,01,36,8.50
2019,05,26,01,37,8.50
2019,05,26,01,38,8.50
2019,05,26,01,39,8.50
2019,05,26,01,40,8.50
2019,05,26,01,41,8.50
2019,05,26,01,42,8.50
2019,05,26,01,43,8.50
2019,05,26,01,44,8.60
2019,05,26,01,45,8.60
2019,05,26,01,46,8.60
2019,05,26,01,47,8.60
2019,05,26,01,48,8.60
2019,05,26,01,49,8.50
2019,05,26,01,50,8.50
2019,05,26,01,51,8.50
2019,05,26,01,52,8.50
2019,05,26,01,53,8.50
2019,05,26,01,54,8.50
2019,05,26,01,55,8.50
2019,05,26,01,56,8.50
2019,05,26,01,57,8.50
2019,05,26,01,58,8.50
2019,05,26,01,59,8.50
2019,05,26,02,00,8.50
2019,05,26,02,01,8.50
2019,05,26,02,02,8.50
2019,05,26,02,03,8.50
2019,05,26,02,04,8.50
2019,05,26,02,05,8.50
2019,05,26,02,06,8.50
2019,05,26,02,07,8.50
2019,05,26,02,08,8.50
2019,05,26,02,09,8.50
2019,05,26,02,10,8.50
2019,05,26,02,11,8.50
2019,05,26,02,12,8.50
2019,05,26,02,13,8.50
2019,05,26,02,14,8.50
2019,05,26,02,15,8.50
2019,05,26,02,16,8.50
2019,05,26,02,17,8.50
2019,05,26,02,18,8.50
2019,05,26,02,19,8.50
2019,05,26,02,20,8.50
2019,05,26,02,21,8.50
2019,05,26,02,22,8.50
2019,05,26,02,23,8.50
2019,05,26,02,24,8.50
2019,05,26,02,25,8.50
2019,05,26,02,26,8.50
2019,05,26,02,27,8.50
2019,05,26,02,28,8.60
2019,05,26,02,29,8.60
2019,05,26,02,30,8.60
2019,05,26,02,31,8.60
2019,05,26,02,32,8.60
2019,05,26,02,33,8.60
2019,05,26,02,34,8.60
2019,05,26,02,35,8.70
2019,05,26,02,36,8.70
2019,05,26,02,37,8.70
2019,05,26,02,38,8.70
2019,05,26,02,39,8.70
2019,05,26,02,40,8.70
2019,05,26,02,41,8.70
2019,05,26,02,42,8.70
2019,05,26,02,43,8.70
2019,05,26,02,44,8.70
2019,05,26,02,45,8.70
2019,05,26,02,46,8.60
2019,05,26,02,47,8.60
2019,05,26,02,48,8.60
2019,05,26,02,49,8.60
2019,05,26,02,50,8.60
2019,05,26,02,51,8.60
2019,05,26,02,52,8.60
2019,05,26,02,53,8.60
2019,05,26,02,54,8.60
2019,05,26,02,55,8.60
2019,05,26,02,56,8.60
2019,05,26,02,57,8.60
2019,05,26,02,58,8.60
2019,05,26,02,59,8.60
2019,05,26,03,00,8.60
2019,05,26,03,01,8.60
2019,05,26,03,02,8.60
2019,05,26,03,03,8.60
2019,05,26,03,04,8.60
2019,05,26,03,05,8.60
2019,05,26,03,06,8.60
2019,05,26,03,07,8.60
2019,05,26,03,08,8.60
2019,05,26,03,09,8.60
2019,05,26,03,10,8.60
2019,05,26,03,11,8.60
2019,05,26,03,12,8.60
2019,05,26,03,13,8.60
2019,05,26,03,14,8.60
2019,05,26,03,15,8.60
2019,05,26,03,16,8.60
2019,05,26,03,17,8.60
2019,05,26,03,18,8.60
2019,05,26,03,19,8.60
2019,05,26,03,20,8.60
2019,05,26,03,21,8.60
2019,05,26,03,22,8.60
2019,05,26,03,23,8.70
2019,05,26,03,24,8.70
2019,05,26,03,25,8.70
2019,05,26,03,26,8.70
2019,05,26,03,27,8.60
2019,05,26,03,28,8.60
2019,05,26,03,29,8.60
2019,05,26,03,30,8.60
2019,05,26,03,31,8.60
2019,05,26,03,32,8.50
2019,05,26,03,33,8.50
2019,05,26,03,34,8.50
2019,05,26,03,35,8.50
2019,05,26,03,36,8.50
2019,05,26,03,37,8.50
2019,05,26,03,38,8.50
2019,05,26,03,39,8.50
2019,05,26,03,40,8.50
2019,05,26,03,41,8.50
2019,05,26,03,42,8.50
2019,05,26,03,43,8.50
2019,05,26,03,44,8.50
2019,05,26,03,45,8.50
2019,05,26,03,46,8.50
2019,05,26,03,47,8.50
2019,05,26,03,48,8.50
2019,05,26,03,49,8.50
2019,05,26,03,50,8.50
2019,05,26,03,51,8.50
2019,05,26,03,52,8.50
2019,05,26,03,53,8.50
2019,05,26,03,54,8.50
2019,05,26,03,55,8.50
2019,05,26,03,56,8.50
2019,05,26,03,57,8.50
2019,05,26,03,58,8.50
2019,05,26,03,59,8.50
2019,05,26,04,00,8.50
2019,05,26,04,01,8.50
2019,05,26,04,02,8.50
2019,05,26,04,03,8.40
2019,05,26,04,04,8.40
2019,05,26,04,05,8.40
2019,05,26,04,06,8.40
2019,05,26,04,07,8.40
2019,05,26,04,08,8.50
2019,05,26,04,09,8.50
2019,05,26,04,10,8.50
2019,05,26,04,11,8.50
2019,05,26,04,12,8.50
2019,05,26,04,13,8.50
2019,05,26,04,14,8.50
2019,05,26,04,15,8.50
2019,05,26,04,16,8.50
2019,05,26,04,17,8.50
2019,05,26,04,18,8.50
2019,05,26,04,19,8.50
2019,05,26,04,20,8.50
2019,05,26,04,21,8.50
2019,05,26,04,22,8.50
2019,05,26,04,23,8.50
2019,05,26,04,24,8.50
2019,05,26,04,25,8.50
2019,05,26,04,26,8.50
2019,05,26,04,27,8.50
2019,05,26,04,28,8.50
2019,05,26,04,29,8.50
2019,05,26,04,30,8.50
2019,05,26,04,31,8.50
2019,05,26,04,32,8.50
2019,05,26,04,33,8.50
2019,05,26,04,34,8.50
2019,05,26,04,35,8.50
2019,05,26,04,36,8.50
2019,05,26,04,37,8.50
2019,05,26,04,38,8.50
2019,05,26,04,39,8.50
2019,05,26,04,40,8.50
2019,05,26,04,41,8.40
2019,05,26,04,42,8.40
2019,05,26,04,43,8.40
2019,05,26,04,44,8.40
2019,05,26,04,45,8.40
2019,05,26,04,46,8.40
2019,05,26,04,47,8.40
2019,05,26,04,48,8.40
2019,05,26,04,49,8.40
2019,05,26,04,50,8.40
2019,05,26,04,51,8.40
2019,05,26,04,52,8.30
2019,05,26,04,53,8.30
2019,05,26,04,54,8.30
2019,05,26,04,55,8.30
2019,05,26,04,56,8.30
2019,05,26,04,57,8.30
2019,05,26,04,58,8.30
2019,05,26,04,59,8.30
2019,05,26,05,00,8.30
2019,05,26,05,01,8.30
2019,05,26,05,02,8.30
2019,05,26,05,03,8.30
2019,05,26,05,04,8.30
2019,05,26,05,05,8.40
2019,05,26,05,06,8.40
2019,05,26,05,07,8.40
2019,05,26,05,08,8.50
2019,05,26,05,09,8.50
2019,05,26,05,10,8.50
2019,05,26,05,11,8.50
2019,05,26,05,12,8.50
2019,05,26,05,13,8.50
2019,05,26,05,14,8.40
2019,05,26,05,15,8.40
2019,05,26,05,16,8.40
2019,05,26,05,17,8.40
2019,05,26,05,18,8.40
2019,05,26,05,19,8.40
2019,05,26,05,20,8.40
2019,05,26,05,21,8.40
2019,05,26,05,22,8.40
2019,05,26,05,23,8.40
2019,05,26,05,24,8.40
2019,05,26,05,25,8.40
2019,05,26,05,26,8.30
2019,05,26,05,27,8.30
2019,05,26,05,28,8.30
2019,05,26,05,29,8.30
2019,05,26,05,30,8.30
2019,05,26,05,31,8.30
2019,05,26,05,32,8.30
2019,05,26,05,33,8.30
2019,05,26,05,34,8.20
2019,05,26,05,35,8.20
2019,05,26,05,36,8.20
2019,05,26,05,37,8.20
2019,05,26,05,38,8.20
2019,05,26,05,39,8.30
2019,05,26,05,40,8.30
2019,05,26,05,41,8.30
2019,05,26,05,42,8.30
2019,05,26,05,43,8.30
2019,05,26,05,44,8.30
2019,05,26,05,45,8.30
2019,05,26,05,46,8.30
2019,05,26,05,47,8.30
2019,05,26,05,48,8.30
2019,05,26,05,49,8.30
2019,05,26,05,50,8.30
2019,05,26,05,51,8.30
2019,05,26,05,52,8.30
2019,05,26,05,53,8.30
2019,05,26,05,54,8.30
2019,05,26,05,55,8.30
2019,05,26,05,56,8.30
2019,05,26,05,57,8.30
2019,05,26,05,58,8.40
2019,05,26,05,59,8.40
2019,05,26,06,00,8.40
2019,05,26,06,01,8.40
2019,05,26,06,02,8.40
2019,05,26,06,03,8.40
2019,05,26,06,04,8.40
2019,05,26,06,05,8.40
2019,05,26,06,06,8.40
2019,05,26,06,07,8.40
2019,05,26,06,08,8.40
2019,05,26,06,09,8.40
2019,05,26,06,10,8.40
2019,05,26,06,11,8.40
2019,05,26,06,12,8.50
2019,05,26,06,13,8.50
2019,05,26,06,14,8.60
2019,05,26,06,15,8.60
2019,05,26,06,16,8.60
2019,05,26,06,17,8.60
2019,05,26,06,18,8.70
2019,05,26,06,19,8.70
2019,05,26,06,20,8.70
2019,05,26,06,21,8.80
2019,05,26,06,22,8.80
2019,05,26,06,23,8.80
2019,05,26,06,24,8.90
2019,05,26,06,25,8.90
2019,05,26,06,26,9.00
2019,05,26,06,27,9.00
2019,05,26,06,28,9.00
2019,05,26,06,29,9.10
2019,05,26,06,30,9.10
2019,05,26,06,31,9.10
2019,05,26,06,32,9.20
2019,05,26,06,33,9.20
2019,05,26,06,34,9.20
2019,05,26,06,35,9.20
2019,05,26,06,36,9.20
2019,05,26,06,37,9.20
2019,05,26,06,38,9.20
2019,05,26,06,39,9.20
2019,05,26,06,40,9.20
2019,05,26,06,41,9.30
2019,05,26,06,42,9.30
2019,05,26,06,43,9.30
2019,05,26,06,44,9.30
2019,05,26,06,45,9.30
2019,05,26,06,46,9.40
2019,05,26,06,47,9.40
2019,05,26,06,48,9.50
2019,05,26,06,49,9.50
2019,05,26,06,50,9.60
2019,05,26,06,51,9.60
2019,05,26,06,52,9.70
2019,05,26,06,53,9.70
2019,05,26,06,54,9.70
2019,05,26,06,55,9.70
2019,05,26,06,56,9.70
2019,05,26,06,57,9.80
2019,05,26,06,58,9.80
2019,05,26,06,59,9.80
2019,05,26,07,00,9.80
2019,05,26,07,01,9.80
2019,05,26,07,02,9.80
2019,05,26,07,03,9.80
2019,05,26,07,04,9.80
2019,05,26,07,05,9.80
2019,05,26,07,06,9.80
2019,05,26,07,07,9.90
2019,05,26,07,08,9.90
2019,05,26,07,09,9.90
2019,05,26,07,10,10.00
2019,05,26,07,11,10.00
2019,05,26,07,12,10.10
2019,05,26,07,13,10.10
2019,05,26,07,14,10.20
2019,05,26,07,15,10.20
2019,05,26,07,16,10.20
2019,05,26,07,17,10.30
2019,05,26,07,18,10.30
2019,05,26,07,19,10.30
2019,05,26,07,20,10.40
2019,05,26,07,21,10.50
2019,05,26,07,22,10.50
2019,05,26,07,23,10.60
2019,05,26,07,24,10.60
2019,05,26,07,25,10.70
2019,05,26,07,26,10.70
2019,05,26,07,27,10.80
2019,05,26,07,28,10.80
2019,05,26,07,29,10.80
2019,05,26,07,30,10.90
2019,05,26,07,31,10.90
2019,05,26,07,32,10.90
2019,05,26,07,33,11.00
2019,05,26,07,34,11.00
2019,05,26,07,35,11.10
2019,05,26,07,36,11.10
2019,05,26,07,37,11.10
2019,05,26,07,38,11.20
2019,05,26,07,39,11.20
2019,05,26,07,40,11.20
2019,05,26,07,41,11.30
2019,05,26,07,42,11.30
2019,05,26,07,43,11.30
2019,05,26,07,44,11.30
2019,05,26,07,45,11.30
2019,05,26,07,46,11.40
2019,05,26,07,47,11.40
2019,05,26,07,48,11.40
2019,05,26,07,49,11.40
2019,05,26,07,50,11.40
2019,05,26,07,51,11.50
2019,05,26,07,52,11.50
2019,05,26,07,53,11.60
2019,05,26,07,54,11.60
2019,05,26,07,55,11.70
2019,05,26,07,56,11.70
2019,05,26,07,57,11.70
2019,05,26,07,58,11.80
2019,05,26,07,59,11.80
2019,05,26,08,00,11.80
2019,05,26,08,01,11.90
2019,05,26,08,02,11.90
2019,05,26,08,03,11.90
2019,05,26,08,04,11.90
2019,05,26,08,05,12.00
2019,05,26,08,06,12.10
2019,05,26,08,07,12.10
2019,05,26,08,08,12.10
2019,05,26,08,09,12.10
2019,05,26,08,10,12.20
2019,05,26,08,11,12.20
2019,05,26,08,12,12.20
2019,05,26,08,13,12.20
2019,05,26,08,14,12.20
2019,05,26,08,15,12.30
2019,05,26,08,16,12.30
2019,05,26,08,17,12.30
2019,05,26,08,18,12.40
2019,05,26,08,19,12.40
2019,05,26,08,20,12.40
2019,05,26,08,21,12.40
2019,05,26,08,22,12.50
2019,05,26,08,23,12.50
2019,05,26,08,24,12.50
2019,05,26,08,25,12.50
2019,05,26,08,26,12.60
2019,05,26,08,27,12.60
2019,05,26,08,28,12.60
2019,05,26,08,29,12.60
2019,05,26,08,30,12.60
2019,05,26,08,31,12.60
2019,05,26,08,32,12.60
2019,05,26,08,33,12.70
2019,05,26,08,34,12.70
2019,05,26,08,35,12.70
2019,05,26,08,36,12.70
2019,05,26,08,37,12.70
2019,05,26,08,38,12.80
2019,05,26,08,39,12.80
2019,05,26,08,40,12.80
2019,05,26,08,41,12.80
2019,05,26,08,42,12.80
2019,05,26,08,43,12.80
2019,05,26,08,44,12.80
2019,05,26,08,45,12.90
2019,05,26,08,46,12.90
2019,05,26,08,47,12.90
2019,05,26,08,48,12.90
2019,05,26,08,49,12.90
2019,05,26,08,50,12.90
2019,05,26,08,51,13.00
2019,05,26,08,52,13.00
2019,05,26,08,53,13.00
2019,05,26,08,54,13.10
2019,05,26,08,55,13.10
2019,05,26,08,56,13.10
2019,05,26,08,57,13.20
2019,05,26,08,58,13.20
2019,05,26,08,59,13.30
2019,05,26,09,00,13.30
2019,05,26,09,01,13.30
2019,05,26,09,02,13.40
2019,05,26,09,03,13.40
2019,05,26,09,04,13.40
2019,05,26,09,05,13.50
2019,05,26,09,06,13.50
2019,05,26,09,07,13.50
2019,05,26,09,08,13.60
2019,05,26,09,09,13.60
2019,05,26,09,10,13.60
2019,05,26,09,11,13.60
2019,05,26,09,12,13.60
2019,05,26,09,13,13.70
2019,05,26,09,14,13.70
2019,05,26,09,15,13.70
2019,05,26,09,16,13.80
2019,05,26,09,17,13.90
2019,05,26,09,18,13.90
2019,05,26,09,19,14.00
2019,05,26,09,20,14.00
2019,05,26,09,21,14.10
2019,05,26,09,22,14.10
2019,05,26,09,23,14.20
2019,05,26,09,24,14.20
2019,05,26,09,25,14.20
2019,05,26,09,26,14.30
2019,05,26,09,27,14.30
2019,05,26,09,28,14.30
2019,05,26,09,29,14.40
2019,05,26,09,30,14.50
2019,05,26,09,31,14.50
2019,05,26,09,32,14.60
2019,05,26,09,33,14.60
2019,05,26,09,34,14.70
2019,05,26,09,35,14.70
2019,05,26,09,36,14.70
2019,05,26,09,37,14.80
2019,05,26,09,38,14.80
2019,05,26,09,39,14.90
2019,05,26,09,40,14.90
2019,05,26,09,41,15.00
2019,05,26,09,42,15.10
2019,05,26,09,43,15.10
2019,05,26,09,44,15.20
2019,05,26,09,45,15.20
2019,05,26,09,46,15.20
2019,05,26,09,47,15.20
2019,05,26,09,48,15.20
2019,05,26,09,49,15.20
2019,05,26,09,50,15.20
2019,05,26,09,51,15.20
2019,05,26,09,52,15.20
2019,05,26,09,53,15.30
2019,05,26,09,54,15.30
2019,05,26,09,55,15.30
2019,05,26,09,56,15.40
2019,05,26,09,57,15.40
2019,05,26,09,58,15.50
2019,05,26,09,59,15.60
2019,05,26,10,00,15.60
2019,05,26,10,01,15.60
2019,05,26,10,02,15.70
2019,05,26,10,03,15.70
2019,05,26,10,04,15.80
2019,05,26,10,05,15.80
2019,05,26,10,06,15.80
2019,05,26,10,07,15.80
2019,05,26,10,08,15.90
2019,05,26,10,09,15.90
2019,05,26,10,10,16.00
2019,05,26,10,11,16.00
2019,05,26,10,12,16.10
2019,05,26,10,13,16.10
2019,05,26,10,14,16.10
2019,05,26,10,15,16.10
2019,05,26,10,16,16.10
2019,05,26,10,17,16.20
2019,05,26,10,18,16.20
2019,05,26,10,19,16.30
2019,05,26,10,20,16.30
2019,05,26,10,21,16.30
2019,05,26,10,22,16.30
2019,05,26,10,23,16.40
2019,05,26,10,24,16.30
2019,05,26,10,25,16.40
2019,05,26,10,26,16.40
2019,05,26,10,27,16.40
2019,05,26,10,28,16.40
2019,05,26,10,29,16.40
2019,05,26,10,30,16.50
2019,05,26,10,31,16.50
2019,05,26,10,32,16.50
2019,05,26,10,33,16.60
2019,05,26,10,34,16.60
2019,05,26,10,35,16.60
2019,05,26,10,36,16.70
2019,05,26,10,37,16.70
2019,05,26,10,38,16.80
2019,05,26,10,39,16.70
2019,05,26,10,40,16.70
2019,05,26,10,41,16.70
2019,05,26,10,42,16.70
2019,05,26,10,43,16.70
2019,05,26,10,44,16.80
2019,05,26,10,45,16.80
2019,05,26,10,46,16.90
2019,05,26,10,47,17.00
2019,05,26,10,48,17.00
2019,05,26,10,49,17.10
2019,05,26,10,50,17.10
2019,05,26,10,51,17.10
2019,05,26,10,52,17.20
2019,05,26,10,53,17.20
2019,05,26,10,54,17.20
2019,05,26,10,55,17.10
2019,05,26,10,56,17.10
2019,05,26,10,57,17.00
2019,05,26,10,58,17.00
2019,05,26,10,59,17.00
2019,05,26,11,00,17.10
2019,05,26,11,01,17.10
2019,05,26,11,02,17.20
2019,05,26,11,03,17.30
2019,05,26,11,04,17.30
2019,05,26,11,05,17.40
2019,05,26,11,06,17.40
2019,05,26,11,07,17.50
2019,05,26,11,08,17.60
2019,05,26,11,09,17.70
2019,05,26,11,10,17.70
2019,05,26,11,11,17.80
2019,05,26,11,12,17.80
2019,05,26,11,13,17.80
2019,05,26,11,14,17.90
2019,05,26,11,15,18.00
2019,05,26,11,16,18.10
2019,05,26,11,17,18.20
2019,05,26,11,18,18.20
2019,05,26,11,19,18.20
2019,05,26,11,20,18.20
2019,05,26,11,21,18.20
2019,05,26,11,22,18.20
2019,05,26,11,23,18.30
2019,05,26,11,24,18.30
2019,05,26,11,25,18.40
2019,05,26,11,26,18.40
2019,05,26,11,27,18.40
2019,05,26,11,28,18.40
2019,05,26,11,29,18.40
2019,05,26,11,30,18.40
2019,05,26,11,31,18.40
2019,05,26,11,32,18.40
2019,05,26,11,33,18.40
2019,05,26,11,34,18.30
2019,05,26,11,35,18.30
2019,05,26,11,36,18.30
2019,05,26,11,37,18.30
2019,05,26,11,38,18.40
2019,05,26,11,39,18.40
2019,05,26,11,40,18.40
2019,05,26,11,41,18.30
2019,05,26,11,42,18.30
2019,05,26,11,43,18.30
2019,05,26,11,44,18.30
2019,05,26,11,45,18.30
2019,05,26,11,46,18.30
2019,05,26,11,47,18.30
2019,05,26,11,48,18.20
2019,05,26,11,49,18.20
2019,05,26,11,50,18.20
2019,05,26,11,51,18.10
2019,05,26,11,52,18.10
2019,05,26,11,53,18.10
2019,05,26,11,54,18.10
2019,05,26,11,55,18.10
2019,05,26,11,56,18.20
2019,05,26,11,57,18.20
2019,05,26,11,58,18.30
2019,05,26,11,59,18.40
2019,05,26,12,00,18.40
2019,05,26,12,01,18.50
2019,05,26,12,02,18.60
2019,05,26,12,03,18.70
2019,05,26,12,04,18.80
2019,05,26,12,05,18.90
2019,05,26,12,06,18.90
2019,05,26,12,07,19.00
2019,05,26,12,08,19.10
2019,05,26,12,09,19.10
2019,05,26,12,10,19.20
2019,05,26,12,11,19.20
2019,05,26,12,12,19.20
2019,05,26,12,13,19.20
2019,05,26,12,14,19.10
2019,05,26,12,15,19.10
2019,05,26,12,16,19.00
2019,05,26,12,17,18.90
2019,05,26,12,18,18.80
2019,05,26,12,19,18.70
2019,05,26,12,20,18.60
2019,05,26,12,21,18.40
2019,05,26,12,22,18.30
2019,05,26,12,23,18.20
2019,05,26,12,24,18.10
2019,05,26,12,25,18.10
2019,05,26,12,26,18.10
2019,05,26,12,27,18.20
2019,05,26,12,28,18.20
2019,05,26,12,29,18.20
2019,05,26,12,30,18.20
2019,05,26,12,31,18.20
2019,05,26,12,32,18.30
2019,05,26,12,33,18.30
2019,05,26,12,34,18.30
2019,05,26,12,35,18.30
2019,05,26,12,36,18.20
2019,05,26,12,37,18.20
2019,05,26,12,38,18.20
2019,05,26,12,39,18.20
2019,05,26,12,40,18.20
2019,05,26,12,41,18.20
2019,05,26,12,42,18.30
2019,05,26,12,43,18.30
2019,05,26,12,44,18.30
2019,05,26,12,45,18.40
2019,05,26,12,46,18.40
2019,05,26,12,47,18.50
2019,05,26,12,48,18.50
2019,05,26,12,49,18.60
2019,05,26,12,50,18.70
2019,05,26,12,51,18.70
2019,05,26,12,52,18.80
2019,05,26,12,53,18.80
2019,05,26,12,54,18.90
2019,05,26,12,55,19.00
2019,05,26,12,56,19.00
2019,05,26,12,57,19.10
2019,05,26,12,58,19.10
2019,05,26,12,59,19.10
2019,05,26,13,00,19.10
2019,05,26,13,01,19.20
2019,05,26,13,02,19.20
2019,05,26,13,03,19.20
2019,05,26,13,04,19.10
2019,05,26,13,05,19.10
2019,05,26,13,06,19.10
2019,05,26,13,07,19.10
2019,05,26,13,08,19.10
2019,05,26,13,09,19.10
2019,05,26,13,10,19.10
2019,05,26,13,11,19.10
2019,05,26,13,12,19.20
2019,05,26,13,13,19.30
2019,05,26,13,14,19.40
2019,05,26,13,15,19.50
2019,05,26,13,16,19.50
2019,05,26,13,17,19.60
2019,05,26,13,18,19.60
2019,05,26,13,19,19.70
2019,05,26,13,20,19.70
2019,05,26,13,21,19.70
2019,05,26,13,22,19.80
2019,05,26,13,23,19.90
2019,05,26,13,24,20.00
2019,05,26,13,25,20.10
2019,05,26,13,26,20.20
2019,05,26,13,27,20.20
2019,05,26,13,28,20.30
2019,05,26,13,29,20.30
2019,05,26,13,30,20.40
2019,05,26,13,31,20.40
2019,05,26,13,32,20.40
2019,05,26,13,33,20.40
2019,05,26,13,34,20.40
2019,05,26,13,35,20.50
2019,05,26,13,36,20.50
2019,05,26,13,37,20.60
2019,05,26,13,38,20.60
2019,05,26,13,39,20.50
2019,05,26,13,40,20.50
2019,05,26,13,41,20.40
2019,05,26,13,42,20.30
2019,05,26,13,43,20.20
2019,05,26,13,44,20.20
2019,05,26,13,45,20.10
2019,05,26,13,46,20.10
2019,05,26,13,47,20.10
2019,05,26,13,48,20.10
2019,05,26,13,49,20.10
2019,05,26,13,50,20.10
2019,05,26,13,51,20.10
2019,05,26,13,52,20.10
2019,05,26,13,53,20.10
2019,05,26,13,54,20.20
2019,05,26,13,55,20.10
2019,05,26,13,56,20.10
2019,05,26,13,57,20.10
2019,05,26,13,58,20.00
2019,05,26,13,59,19.90
2019,05,26,14,00,19.80
2019,05,26,14,01,19.70
2019,05,26,14,02,19.60
2019,05,26,14,03,19.50
2019,05,26,14,04,19.50
2019,05,26,14,05,19.40
2019,05,26,14,06,19.40
2019,05,26,14,07,19.40
2019,05,26,14,08,19.40
2019,05,26,14,09,19.40
2019,05,26,14,10,19.40
2019,05,26,14,11,19.40
2019,05,26,14,12,19.50
2019,05,26,14,13,19.50
2019,05,26,14,14,19.60
2019,05,26,14,15,19.60
2019,05,26,14,16,19.60
2019,05,26,14,17,19.60
2019,05,26,14,18,19.60
2019,05,26,14,19,19.60
2019,05,26,14,20,19.60
2019,05,26,14,21,19.50
2019,05,26,14,22,19.50
2019,05,26,14,23,19.40
2019,05,26,14,24,19.40
2019,05,26,14,25,19.40
2019,05,26,14,26,19.40
2019,05,26,14,27,19.40
2019,05,26,14,28,19.30
2019,05,26,14,29,19.30
2019,05,26,14,30,19.30
2019,05,26,14,31,19.30
2019,05,26,14,32,19.30
2019,05,26,14,33,19.40
2019,05,26,14,34,19.50
2019,05,26,14,35,19.60
2019,05,26,14,36,19.60
2019,05,26,14,37,19.60
2019,05,26,14,38,19.60
2019,05,26,14,39,19.60
2019,05,26,14,40,19.60
2019,05,26,14,41,19.60
2019,05,26,14,42,19.60
2019,05,26,14,43,19.60
2019,05,26,14,44,19.50
2019,05,26,14,45,19.50
2019,05,26,14,46,19.40
2019,05,26,14,47,19.50
2019,05,26,14,48,19.50
2019,05,26,14,49,19.50
2019,05,26,14,50,19.60
2019,05,26,14,51,19.60
2019,05,26,14,52,19.60
2019,05,26,14,53,19.60
2019,05,26,14,54,19.70
2019,05,26,14,55,19.70
2019,05,26,14,56,19.80
2019,05,26,14,57,19.80
2019,05,26,14,58,19.70
2019,05,26,14,59,19.70
2019,05,26,15,00,19.60
2019,05,26,15,01,19.60
2019,05,26,15,02,19.50
2019,05,26,15,03,19.50
2019,05,26,15,04,19.50
2019,05,26,15,05,19.40
2019,05,26,15,06,19.40
2019,05,26,15,07,19.40
2019,05,26,15,08,19.40
2019,05,26,15,09,19.30
2019,05,26,15,10,19.30
2019,05,26,15,11,19.30
2019,05,26,15,12,19.40
2019,05,26,15,13,19.40
2019,05,26,15,14,19.40
2019,05,26,15,15,19.40
2019,05,26,15,16,19.40
2019,05,26,15,17,19.40
2019,05,26,15,18,19.40
2019,05,26,15,19,19.40
2019,05,26,15,20,19.40
2019,05,26,15,21,19.30
2019,05,26,15,22,19.30
2019,05,26,15,23,19.30
2019,05,26,15,24,19.30
2019,05,26,15,25,19.30
2019,05,26,15,26,19.30
2019,05,26,15,27,19.30
2019,05,26,15,28,19.20
2019,05,26,15,29,19.20
2019,05,26,15,30,19.20
2019,05,26,15,31,19.20
2019,05,26,15,32,19.20
2019,05,26,15,33,19.20
2019,05,26,15,34,19.30
2019,05,26,15,35,19.30
2019,05,26,15,36,19.30
2019,05,26,15,37,19.40
2019,05,26,15,38,19.40
2019,05,26,15,39,19.40
2019,05,26,15,40,19.50
2019,05,26,15,41,19.40
2019,05,26,15,42,19.40
2019,05,26,15,43,19.40
2019,05,26,15,44,19.50
2019,05,26,15,45,19.50
2019,05,26,15,46,19.60
2019,05,26,15,47,19.60
2019,05,26,15,48,19.70
2019,05,26,15,49,19.70
2019,05,26,15,50,19.80
2019,05,26,15,51,19.80
2019,05,26,15,52,19.90
2019,05,26,15,53,19.90
2019,05,26,15,54,20.00
2019,05,26,15,55,20.00
2019,05,26,15,56,20.00
2019,05,26,15,57,20.00
2019,05,26,15,58,20.00
2019,05,26,15,59,19.90
2019,05,26,16,00,19.90
2019,05,26,16,01,19.90
2019,05,26,16,02,19.90
2019,05,26,16,03,19.90
2019,05,26,16,04,20.00
2019,05,26,16,05,20.00
2019,05,26,16,06,20.10
2019,05,26,16,07,20.10
2019,05,26,16,08,20.30
2019,05,26,16,09,20.40
2019,05,26,16,10,20.50
2019,05,26,16,11,20.60
2019,05,26,16,12,20.80
2019,05,26,16,13,20.90
2019,05,26,16,14,21.00
2019,05,26,16,15,21.10
2019,05,26,16,16,21.20
2019,05,26,16,17,21.20
2019,05,26,16,18,21.30
2019,05,26,16,19,21.40
2019,05,26,16,20,21.40
2019,05,26,16,21,21.50
2019,05,26,16,22,21.60
2019,05,26,16,23,21.60
2019,05,26,16,24,21.70
2019,05,26,16,25,21.70
2019,05,26,16,26,21.70
2019,05,26,16,27,21.70
2019,05,26,16,28,21.80
2019,05,26,16,29,21.80
2019,05,26,16,30,21.80
2019,05,26,16,31,21.70
2019,05,26,16,32,21.70
2019,05,26,16,33,21.70
2019,05,26,16,34,21.70
2019,05,26,16,35,21.70
2019,05,26,16,36,21.80
2019,05,26,16,37,21.90
2019,05,26,16,38,22.00
2019,05,26,16,39,22.00
2019,05,26,16,40,22.20
2019,05,26,16,41,22.30
2019,05,26,16,42,22.40
2019,05,26,16,43,22.50
2019,05,26,16,44,22.60
2019,05,26,16,45,22.70
2019,05,26,16,46,22.70
2019,05,26,16,47,22.80
2019,05,26,16,48,22.80
2019,05,26,16,49,22.90
2019,05,26,16,50,23.00
2019,05,26,16,51,23.10
2019,05,26,16,52,23.10
2019,05,26,16,53,23.20
2019,05,26,16,54,23.20
2019,05,26,16,55,23.10
2019,05,26,16,56,23.10
2019,05,26,16,57,23.00
2019,05,26,16,58,22.90
2019,05,26,16,59,22.80
2019,05,26,17,00,22.70
2019,05,26,17,01,22.70
2019,05,26,17,02,22.60
2019,05,26,17,03,22.60
2019,05,26,17,04,22.60
2019,05,26,17,05,22.60
2019,05,26,17,06,22.70
2019,05,26,17,07,22.70
2019,05,26,17,08,22.70
2019,05,26,17,09,22.80
2019,05,26,17,10,22.80
2019,05,26,17,11,22.80
2019,05,26,17,12,22.80
2019,05,26,17,13,22.80
2019,05,26,17,14,22.90
2019,05,26,17,15,22.90
2019,05,26,17,16,22.90
2019,05,26,17,17,22.90
2019,05,26,17,18,22.80
2019,05,26,17,19,22.70
2019,05,26,17,20,22.60
2019,05,26,17,21,22.50
2019,05,26,17,22,22.40
2019,05,26,17,23,22.30
2019,05,26,17,24,22.20
2019,05,26,17,25,22.20
2019,05,26,17,26,22.10
2019,05,26,17,27,22.10
2019,05,26,17,28,22.00
2019,05,26,17,29,21.90
2019,05,26,17,30,21.80
2019,05,26,17,31,21.70
2019,05,26,17,32,21.60
2019,05,26,17,33,21.50
2019,05,26,17,34,21.50
2019,05,26,17,35,21.40
2019,05,26,17,36,21.30
2019,05,26,17,37,21.30
2019,05,26,17,38,21.20